User: anonymous
Location: Unspecified
(0.0000°N, 0.0000°E)
Time: 21:05:26
(UTC+00:00)
Language:

deb Explorer IX - Orbit

View from above orbital plane
View from above orbital plane
View from above satellite
View from above satellite

Ground track
Ground track

The orbit data is extracted from the following two-line orbital elements,

1 00085U 61004C   14113.38306522  .00006209  00000-0  15907-2 0  9624
2 00085 038.7666 229.5330 0469468 050.2446 313.8692 14.00469040612596
Epoch (UTC): 23 April 2014 09:11:36
Eccentricity: 0.0469468
inclination: 38.7666°
perigee height: 551 km
apogee height: 1233 km
right ascension of ascending node: 229.5330°
argument of perigee: 50.2446°
revolutions per day: 14.00469040
mean anomaly at epoch: 313.8692°
orbit number at epoch: 61259

The dashed part of the orbit path shows where the satellite is in the earth's shadow,  

DLR